Location: El Conde
(10.2895°N, 67.2409°W)
Time: 18:41:28
(UTC+00:00)

OAO 1 - Pass Details

Date: 19 May 2024
Orbit: 772 x 783 km, 35.0° (Epoch: 11 June)

Event Time Altitude Azimuth Distance (km) Brightness Sun altitude
Rises 23:38:56 0° 232° (SW) 3,246 8.2 -13.3°
Reaches altitude 10° 23:41:25 10° 232° (SW) 2,317 7.4 -13.8°
Maximum altitude 23:46:54 84° 144° (SE) 780 4.4 -15.1°
Drops below altitude 10° 23:52:22 10° 56° (NE) 2,309 6.7 -16.3°
Enters shadow 23:53:27 - 56° (NE) 2,713 7.0 -16.5°
